Location: Jarosław
(50.0191°N, 22.6835°E)
Time: 01:48:31
(UTC+01:00)

ISS - Pass Details

Date: 30 January 2019
Orbit: 403 x 411 km, 51.6° (Epoch: 17 February)

Event Time Altitude Azimuth Distance (km) Brightness Sun altitude
Rises 19:02:38 0° 281° (W) 2,339 1.4 -26.2°
Reaches altitude 10° 19:04:44 10° 283° (WNW) 1,479 0.0 -26.5°
Enters shadow 19:06:10 23° 289° (WNW) 916 -1.4 -26.7°
